[[{"header":{"parameterUnit":"m.s-1","parameterCategory":1,"la1":30.2991,"la2":30.254,"lo1":-89.0895,"lo2":-89.0444,"dy":0.0017,"dx":0.0017,"nx":28,"ny":28,"refTime":"2024-03-24T03:00:00:Z","depth":0,"parameterNumber":2,"parameterNumberName":"U-component_of_WINDS"},"data":[0,0,0,0,0,0,0,0,0,0,0,0,0,0,0,0,0,0,0,0,0,0,0,0,0,0,0,0,0,0,0,0,0,0,0,0,0,0,0,0,0,0,0,0,0,0,0,0,0,0,0,0,0,0,0,0,0,0,-4.2138,-4.2138,0,-4.215,-4.215,-4.215,-4.21,-4.2099,-4.2097,-4.2096,-4.2108,-4.211,-4.2111,0,0,0,0,0,0,0,0,0,0,0,0,0,-4.2073,-4.2075,-4.2138,-4.2138,-4.2138,-4.215,-4.215,-4.215,-4.21,-4.2099,-4.2097,-4.2095,-4.2107,-4.2109,-4.2112,0,0,0,0,0,0,0,0,0,0,0,0,0,-4.2095,-4.2075,-4.2138,-4.2115,-4.2113,-4.215,-4.215,-4.215,-4.2101,-4.2099,-4.2096,-4.2094,-4.2107,-4.2109,-4.2112,-4.2172,0,0,-4.212,-4.2121,0,0,0,0,0,0,0,0,-4.2094,-4.2097,-4.2118,-4.2116,-4.2114,-4.2121,-4.2132,-4.2158,-4.2101,-4.2105,-4.2096,-4.2093,-4.2114,-4.2116,-4.2123,-4.2173,-4.2173,-4.212,-4.2121,-4.2123,-4.2123,0,0,0,0,0,0,0,-4.2092,-4.2097,-4.2143,-4.2118,-4.2116,-4.2104,-4.2105,-4.2136,-4.2122,-4.2105,-4.2101,-4.2103,-4.2113,-4.2121,-4.2123,-4.2173,-4.212,-4.2122,-4.2124,-4.2125,-4.2274,-4.2276,0,0,0,0,0,0,-4.2094,-4.2096,-4.2142,-4.2143,-4.2098,-4.2107,-4.2108,-4.2121,-4.2122,-4.2119,-4.2105,-4.2101,-4.2118,-4.212,-4.2123,-4.2193,-4.2122,-4.2125,-4.2126,-4.2271,-4.2274,-4.2277,0,0,0,0,0,0,-4.2093,-4.2098,-4.2142,-4.2118,-4.2123,-4.2111,-4.2126,-4.2123,-4.213,-4.2122,-4.2119,-4.2116,-4.2116,-4.212,-4.216,-4.2193,-4.2126,-4.2128,-4.2268,-4.2272,-4.2275,-4.2334,0,0,0,0,0,0,-4.2091,-4.2098,-4.212,-4.2119,-4.2125,-4.2178,-4.2128,-4.2125,-4.2135,-4.213,-4.2131,-4.2129,-4.2114,-4.2157,-4.2163,-4.2195,-4.213,-4.2265,-4.227,-4.2274,-4.2329,-4.2339,-4.2348,0,0,0,0,0,-4.2089,-4.2136,-4.2122,-4.2127,-4.2152,-4.218,-4.2183,-4.2165,-4.2138,-4.216,-4.2155,-4.2129,-4.2189,-4.2161,-4.2168,-4.2201,-4.2263,-4.2269,-4.2274,-4.2325,-4.2337,-4.2348,0,0,0,0,0,0,-4.214,-4.2135,-4.2119,-4.2168,-4.2175,-4.2172,-4.2199,-4.2179,-4.2194,-4.2188,-4.2165,-4.2166,-4.2211,-4.2211,-4.218,-4.226,-4.2221,-4.2229,-4.2258,-4.227,-4.2279,-4.2277,-4.2132,0,0,0,0,0,-4.2158,-4.2181,-4.2176,-4.2219,-4.2223,-4.2211,-4.2223,-4.2209,-4.2215,-4.2218,-4.2215,-4.2223,-4.2243,-4.2257,-4.2275,-4.233,-4.233,-4.2357,-4.2366,-4.2374,-4.2379,-4.2408,-4.242,-4.2295,-4.2295,-4.2294,0,0,-4.2193,-4.2193,-4.2209,-4.2229,-4.2233,-4.2258,-4.2214,-4.2241,-4.226,-4.2222,-4.2259,-4.2259,-4.2266,-4.2314,-4.2335,-4.2315,-4.2415,-4.2381,-4.2387,-4.2388,-4.2415,-4.2427,-4.2438,-4.2298,-4.2298,-4.2297,0,0,-4.2269,-4.2272,-4.2308,-4.2314,-4.2321,-4.2313,-4.2322,-4.2322,-4.232,-4.2358,-4.2331,-4.2353,-4.2389,-4.2395,-4.2403,-4.2485,-4.2462,-4.2493,-4.254,-4.2569,-4.2579,-4.2587,-4.2616,-4.2626,-4.2499,-4.2499,-4.2499,0,-4.2311,-4.2347,-4.233,-4.236,-4.237,-4.2338,-4.2375,-4.2381,-4.2394,-4.2402,-4.238,-4.2425,-4.2428,-4.2477,-4.2497,-4.2505,-4.2515,-4.249,-4.2579,-4.2587,-4.2595,-4.2622,-4.2633,-4.2502,-4.2502,-4.2501,-4.2501,0,-4.2399,-4.2425,-4.2454,-4.2467,-4.2481,-4.2514,-4.2502,-4.2518,-4.2504,-4.2499,-4.2539,-4.2542,-4.256,-4.2572,-4.2558,-4.2619,-4.2607,-4.2583,-4.2542,-4.2611,-4.2635,-4.2646,-4.2507,-4.2506,-4.2505,-4.2504,0,0,-4.2504,-4.251,-4.252,-4.2526,-4.2533,-4.2553,-4.2586,-4.2605,-4.2619,-4.263,-4.2657,-4.269,-4.2668,-4.2677,-4.2664,-4.269,-4.2755,-4.2663,-4.2663,-4.2678,-4.2822,-4.2838,-4.285,-4.2741,-4.2743,-4.2744,-4.2821,0,-4.2578,-4.2633,-4.262,-4.2675,-4.2698,-4.2671,-4.27,-4.2708,-4.2705,-4.2725,-4.2722,-4.2745,-4.2715,-4.272,-4.2745,-4.2741,-4.2783,-4.2736,-4.2764,-4.2766,-4.276,-4.2863,-4.288,-4.2952,-4.283,-4.2832,-4.2833,0,-4.267,-4.2685,-4.2743,-4.2747,-4.2756,-4.2782,-4.2799,-4.2819,-4.2828,-4.2824,-4.2836,-4.2819,-4.2853,-4.2815,-4.2861,-4.283,-4.2841,-4.2842,-4.2845,-4.2844,-4.2801,-4.2863,-4.2974,-4.2984,-4.2848,-4.2847,-4.2846,0,-4.2739,-4.2774,-4.2813,-4.282,-4.2826,-4.2845,-4.2849,-4.2856,-4.2868,-4.2884,-4.2892,-4.2911,-4.2921,-4.2937,-4.2926,-4.29,-4.2974,-4.2935,-4.2971,-4.2971,-4.2984,-4.2983,-4.3096,-4.2996,-4.2996,-4.2996,-4.2996,0,-4.2821,-4.2857,-4.2844,-4.2868,-4.2908,-4.2893,-4.2934,-4.2934,-4.2941,-4.2965,-4.2944,-4.2966,-4.2952,-4.2974,-4.2966,-4.3005,-4.301,-4.3008,-4.3005,-4.3008,-4.3008,-4.3013,-4.3007,-4.2999,-4.2998,-4.2998,-4.2997,0,-4.2903,-4.2896,-4.2937,-4.294,-4.2942,-4.2972,-4.2975,-4.2997,-4.2994,-4.3025,-4.3031,-4.3026,-4.3051,-4.3043,-4.307,-4.3065,-4.3114,-4.3105,-4.311,-4.3107,-4.3142,-4.3138,-4.326,-4.3275,-4.3168,-4.3169,-4.317,0,-4.2954,-4.2981,-4.2989,-4.3003,-4.3008,-4.3032,-4.3045,-4.3033,-4.3048,-4.3062,-4.3083,-4.3107,-4.3124,-4.3166,-4.3164,-4.3185,-4.3176,-4.3218,-4.3179,-4.3182,-4.3175,-4.3172,-4.3174,-4.3224,-4.3225,-4.3227,-4.3227,0,-4.3045,-4.3041,-4.3061,-4.3081,-4.3097,-4.3112,-4.3124,-4.3138,-4.3127,-4.3145,-4.317,-4.3184,-4.3213,-4.3236,-4.3256,-4.326,-4.3242,-4.324,-4.3249,-4.3251,-4.3252,-4.3251,-4.3129,-4.3237,-4.3236,-4.3235,-4.3234,-4.3234,-4.3112,-4.3135,-4.3144,-4.3167,-4.3176,-4.3189,-4.3211,-4.3211,-4.3232,-4.3254,-4.3246,-4.3276,-4.3286,-4.331,-4.3318,-4.3341,-4.3325,-4.3338,-4.3341,-4.3344,-4.3348,-4.3251,-4.3345,-4.3345,-4.3344,-4.3344,-4.3344,0,-4.3201,-4.3206,-4.3228,-4.3247,-4.3265,-4.3249,-4.3263,-4.3279,-4.3305,-4.3317,-4.3335,-4.3365,-4.3389,-4.3391,-4.3413,-4.3431,-4.3423,-4.3437,-4.3434,-4.3435,-4.3361,-4.3351,-4.3443,-4.3443,-4.3443,-4.3443,-4.3443,-4.3443,-4.3249,-4.3287,-4.3285,-4.3327,-4.3332,-4.3361,-4.337,-4.3382,-4.3391,-4.3426,-4.3445,-4.3447,-4.3455,-4.3478,-4.3499,-4.3499,-4.3507,-4.3524,-4.3521,-4.3451,-4.3441,-4.3431,-4.3421,-4.3526,-4.3526,-4.3592,-4.3593,-4.3593]},{"header":{"parameterUnit":"m.s-1","parameterCategory":1,"la1":30.2991,"la2":30.254,"lo1":-89.0895,"lo2":-89.0444,"dy":0.0017,"dx":0.0017,"nx":28,"ny":28,"refTime":"2024-03-24T03:00:00:Z","depth":0,"parameterNumber":3,"parameterNumberName":"V-component_of_WINDS"},"data":[0,0,0,0,0,0,0,0,0,0,0,0,0,0,0,0,0,0,0,0,0,0,0,0,0,0,0,0,0,0,0,0,0,0,0,0,0,0,0,0,0,0,0,0,0,0,0,0,0,0,0,0,0,0,0,0,0,0,2.7902,2.7902,0,2.7942,2.7942,2.7943,2.8006,2.8008,2.8009,2.801,2.8046,2.8046,2.8046,0,0,0,0,0,0,0,0,0,0,0,0,0,2.7878,2.7878,2.7902,2.7902,2.7903,2.7942,2.7942,2.7943,2.8006,2.8008,2.8009,2.801,2.8046,2.8046,2.8046,0,0,0,0,0,0,0,0,0,0,0,0,0,2.79,2.7878,2.7902,2.7939,2.7943,2.7942,2.7942,2.7943,2.8006,2.8008,2.8009,2.8011,2.8046,2.8046,2.8046,2.801,0,0,2.8045,2.8045,0,0,0,0,0,0,0,0,2.7898,2.7901,2.7933,2.7937,2.7941,2.7971,2.7947,2.7965,2.8006,2.7982,2.801,2.8012,2.802,2.8022,2.8025,2.8012,2.8013,2.8045,2.8045,2.8045,2.8045,0,0,0,0,0,0,0,2.7897,2.7899,2.7918,2.7934,2.7938,2.7953,2.7958,2.7951,2.799,2.7984,2.7989,2.7993,2.8022,2.8025,2.8027,2.8014,2.8045,2.8045,2.8045,2.8045,2.7974,2.7972,0,0,0,0,0,0,2.789,2.7898,2.7916,2.7919,2.7924,2.7952,2.7958,2.796,2.7991,2.7997,2.7991,2.7996,2.8025,2.8027,2.8028,2.7989,2.8045,2.8045,2.8045,2.7976,2.7974,2.7972,0,0,0,0,0,0,2.7889,2.7891,2.7915,2.791,2.7914,2.7951,2.7952,2.7959,2.7963,2.7996,2.8003,2.7988,2.8026,2.8028,2.8015,2.7991,2.8045,2.8045,2.7978,2.7975,2.7973,2.791,0,0,0,0,0,0,2.7889,2.7891,2.7878,2.7909,2.7914,2.7901,2.7951,2.7959,2.7963,2.7969,2.7995,2.8,2.8028,2.8015,2.8014,2.7992,2.8045,2.798,2.7977,2.7974,2.7914,2.7905,2.7898,0,0,0,0,0,2.7887,2.7857,2.7877,2.7879,2.7899,2.79,2.7903,2.7936,2.7961,2.7948,2.797,2.8,2.7994,2.8013,2.8013,2.799,2.7982,2.7978,2.7974,2.7918,2.7907,2.7898,0,0,0,0,0,0,2.782,2.7862,2.7884,2.7863,2.7878,2.7911,2.7895,2.7923,2.793,2.7935,2.7975,2.798,2.7961,2.7974,2.7995,2.7958,2.7993,2.7988,2.795,2.794,2.7932,2.7929,2.8045,0,0,0,0,0,2.7804,2.7802,2.7838,2.7816,2.7822,2.7858,2.7859,2.7884,2.79,2.7906,2.7927,2.794,2.7942,2.7941,2.7944,2.7917,2.7923,2.7901,2.7893,2.7886,2.7882,2.7869,2.786,2.7959,2.7959,2.7959,0,0,2.7768,2.7791,2.7787,2.7803,2.7817,2.7815,2.7862,2.7857,2.7855,2.7905,2.7894,2.7909,2.7927,2.7907,2.7899,2.7917,2.7856,2.7881,2.7875,2.7875,2.7864,2.7855,2.7847,2.7956,2.7957,2.7957,0,0,2.7702,2.7719,2.7703,2.7717,2.7739,2.7763,2.7759,2.7788,2.7801,2.7791,2.7829,2.7827,2.7828,2.784,2.7846,2.7786,2.7814,2.7786,2.7743,2.773,2.7722,2.7716,2.7695,2.7687,2.7782,2.7781,2.7781,0,2.7655,2.7653,2.7691,2.7684,2.7691,2.7738,2.7722,2.7733,2.7754,2.7757,2.7777,2.7782,2.7796,2.778,2.7766,2.7769,2.7766,2.7783,2.7721,2.7714,2.7709,2.769,2.7682,2.7778,2.7778,2.7779,2.7779,0,2.7595,2.7593,2.7578,2.7599,2.7603,2.7592,2.7628,2.7627,2.7652,2.7673,2.7663,2.7683,2.7692,2.769,2.7712,2.7677,2.7688,2.7714,2.775,2.7695,2.7678,2.7671,2.7773,2.7774,2.7775,2.7776,0,0,2.7487,2.7531,2.7525,2.7536,2.7564,2.7563,2.7553,2.7564,2.7563,2.7576,2.7569,2.757,2.7596,2.7602,2.7627,2.7616,2.7569,2.7644,2.7645,2.763,2.7532,2.7512,2.7503,2.7588,2.7586,2.7585,2.753,0,2.7427,2.7416,2.745,2.7429,2.7429,2.7474,2.7466,2.7482,2.7502,2.7504,2.7525,2.7526,2.7559,2.7563,2.7554,2.7576,2.755,2.7581,2.7581,2.7581,2.7576,2.7494,2.7473,2.742,2.7524,2.7523,2.7522,0,2.7356,2.7368,2.7347,2.7378,2.7379,2.7372,2.7385,2.7386,2.7405,2.742,2.7429,2.7459,2.7451,2.7486,2.7476,2.7497,2.7499,2.751,2.7509,2.751,2.7548,2.7494,2.7404,2.7396,2.7512,2.7512,2.7513,0,2.7281,2.7291,2.7281,2.7289,2.7324,2.7318,2.7332,2.7353,2.7358,2.7369,2.7372,2.7381,2.7386,2.7392,2.7423,2.7445,2.741,2.7447,2.7423,2.7422,2.7413,2.7413,2.7323,2.7414,2.7414,2.7414,2.7414,0,2.7211,2.7197,2.7248,2.7241,2.7227,2.7267,2.7251,2.727,2.7288,2.7286,2.7325,2.7322,2.7363,2.7364,2.7388,2.7377,2.7379,2.7391,2.7397,2.7388,2.7386,2.739,2.7394,2.7412,2.7412,2.7413,2.7413,0,2.7125,2.7158,2.715,2.7185,2.7194,2.7182,2.7211,2.7206,2.723,2.7226,2.7227,2.7263,2.7267,2.7299,2.7308,2.7325,2.7305,2.7318,2.7299,2.7303,2.7277,2.7279,2.7186,2.7177,2.7273,2.7272,2.7271,0,2.7078,2.7069,2.7104,2.7106,2.7119,2.7121,2.7127,2.7165,2.7169,2.7191,2.7184,2.7191,2.7199,2.7202,2.7228,2.7236,2.725,2.7217,2.7252,2.7243,2.7251,2.7251,2.7251,2.721,2.7209,2.7208,2.7207,0,2.6993,2.701,2.7017,2.703,2.7036,2.7048,2.7062,2.7061,2.7104,2.7106,2.7111,2.7117,2.7129,2.7135,2.7148,2.7162,2.7191,2.7196,2.7191,2.7181,2.717,2.7177,2.7279,2.7198,2.7199,2.7199,2.72,2.72,2.6926,2.692,2.6944,2.6951,2.6966,2.6979,2.6977,2.7,2.7006,2.7019,2.7041,2.7043,2.7064,2.7084,2.7096,2.7098,2.7115,2.7107,2.7105,2.7103,2.7098,2.717,2.71,2.71,2.71,2.7101,2.7101,0,2.6843,2.6861,2.6867,2.6887,2.6892,2.6921,2.6938,2.6941,2.6942,2.696,2.6967,2.6973,2.698,2.7008,2.7017,2.7013,2.7027,2.7015,2.7016,2.7018,2.7082,2.7086,2.7004,2.7004,2.7004,2.7004,2.7004,2.7004,2.6801,2.6793,2.6814,2.6814,2.6832,2.6836,2.6843,2.6855,2.6869,2.6875,2.6882,2.69,2.6921,2.6933,2.6941,2.6949,2.6951,2.6934,2.6946,2.7004,2.7014,2.7023,2.7027,2.6934,2.6934,2.6883,2.6882,2.6882]}]]